TimeEDT,TemperatureF,Dew PointF,Humidity,Sea Level PressureIn,VisibilityMPH,Wind Direction,Wind SpeedMPH,Gust SpeedMPH,PrecipitationIn,Events,Conditions,WindDirDegrees,DateUTC
12:14 AM,66.2,62.6,88,29.73,6.0,West,5.8,-,N/A,,Mostly Cloudy,270,2012-09-18 04:14:00
12:25 AM,66.2,62.6,88,29.72,6.0,WSW,4.6,-,N/A,,Overcast,250,2012-09-18 04:25:00
12:53 AM,64.9,62.1,90,29.71,4.0,West,5.8,-,0.02,Rain-Thunderstorm,Light Rain,260,2012-09-18 04:53:00
1:03 AM,64.4,60.8,88,29.73,2.5,West,6.9,-,0.02,Rain,Rain,260,2012-09-18 05:03:00
1:17 AM,64.4,60.8,88,29.72,3.0,West,6.9,-,0.04,Rain-Thunderstorm,Rain,280,2012-09-18 05:17:00
1:30 AM,64.4,60.8,88,29.72,6.0,WNW,6.9,-,0.06,Rain,Light Rain,300,2012-09-18 05:30:00
1:39 AM,64.4,60.8,88,29.72,5.0,NNW,6.9,-,0.06,Rain,Rain,330,2012-09-18 05:39:00
1:53 AM,63.0,59.0,87,29.71,5.0,NNW,4.6,-,0.08,Rain,Rain,340,2012-09-18 05:53:00
2:51 AM,62.6,59.0,88,29.70,9.0,NW,6.9,-,0.04,Rain,Light Rain,310,2012-09-18 06:51:00
2:53 AM,62.1,59.0,90,29.69,8.0,NW,6.9,-,0.04,Rain,Light Rain,310,2012-09-18 06:53:00
3:00 AM,62.6,59.0,88,29.70,7.0,North,17.3,23.0,0.01,Rain,Light Rain,350,2012-09-18 07:00:00
3:23 AM,60.8,55.4,82,29.70,10.0,NNW,12.7,21.9,0.02,,Overcast,340,2012-09-18 07:23:00
3:53 AM,59.0,55.0,87,29.69,10.0,NNW,11.5,-,0.03,Rain,Light Rain,330,2012-09-18 07:53:00
4:10 AM,59.0,55.4,88,29.69,10.0,NNW,8.1,-,0.00,Rain,Light Rain,340,2012-09-18 08:10:00
4:35 AM,59.0,55.4,88,29.69,10.0,NNW,6.9,-,0.01,,Overcast,330,2012-09-18 08:35:00
4:44 AM,59.0,55.4,88,29.69,9.0,NW,6.9,-,0.01,Rain,Light Rain,320,2012-09-18 08:44:00
4:53 AM,59.0,55.9,90,29.69,10.0,NW,8.1,-,0.02,,Overcast,320,2012-09-18 08:53:00
5:10 AM,59.0,55.4,88,29.69,10.0,NW,5.8,-,0.00,Rain,Light Rain,320,2012-09-18 09:10:00
5:17 AM,59.0,55.4,88,29.69,10.0,NNW,6.9,-,0.00,Rain,Light Rain,330,2012-09-18 09:17:00
5:50 AM,59.0,55.4,88,29.70,10.0,NNW,6.9,-,0.00,,Overcast,340,2012-09-18 09:50:00
5:53 AM,59.0,55.9,90,29.69,10.0,NNW,5.8,-,0.00,,Overcast,330,2012-09-18 09:53:00
6:53 AM,57.9,54.0,87,29.71,10.0,NNW,12.7,-,N/A,,Overcast,340,2012-09-18 10:53:00
7:01 AM,57.2,53.6,88,29.72,10.0,NNW,10.4,-,N/A,,Overcast,340,2012-09-18 11:01:00
7:53 AM,57.0,52.0,83,29.73,10.0,North,8.1,-,N/A,,Overcast,350,2012-09-18 11:53:00
8:53 AM,55.9,50.0,80,29.74,10.0,NNW,11.5,-,N/A,,Overcast,330,2012-09-18 12:53:00
9:53 AM,57.0,50.0,77,29.76,10.0,North,8.1,-,0.00,,Overcast,350,2012-09-18 13:53:00
10:53 AM,59.0,48.9,69,29.78,10.0,NNW,10.4,-,N/A,,Mostly Cloudy,330,2012-09-18 14:53:00
11:33 AM,59.0,48.2,67,29.79,10.0,NNW,12.7,-,N/A,,Mostly Cloudy,340,2012-09-18 15:33:00
11:42 AM,57.2,48.2,72,29.79,10.0,NNW,11.5,-,N/A,,Mostly Cloudy,330,2012-09-18 15:42:00
11:53 AM,60.1,48.0,64,29.78,10.0,North,13.8,21.9,N/A,,Mostly Cloudy,350,2012-09-18 15:53:00
12:41 PM,55.4,48.2,77,29.82,9.0,NNW,16.1,23.0,0.00,Rain,Light Rain,330,2012-09-18 16:41:00
12:49 PM,55.4,48.2,77,29.82,10.0,NW,11.5,-,0.00,Rain,Light Rain,320,2012-09-18 16:49:00
12:53 PM,55.0,48.0,77,29.82,10.0,NW,10.4,-,0.00,Rain,Light Rain,310,2012-09-18 16:53:00
1:53 PM,57.9,48.0,70,29.83,10.0,NW,15.0,23.0,0.01,Rain,Light Rain,310,2012-09-18 17:53:00
2:53 PM,57.0,46.9,69,29.84,10.0,NW,11.5,-,0.00,,Mostly Cloudy,320,2012-09-18 18:53:00
3:53 PM,60.1,44.1,55,29.85,10.0,NW,15.0,20.7,0.00,,Mostly Cloudy,310,2012-09-18 19:53:00
4:53 PM,59.0,39.9,49,29.88,10.0,NNW,12.7,27.6,N/A,,Mostly Cloudy,330,2012-09-18 20:53:00
5:53 PM,57.0,36.0,45,29.91,10.0,NNW,13.8,27.6,N/A,,Mostly Cloudy,330,2012-09-18 21:53:00
6:53 PM,55.9,34.0,44,29.93,10.0,NW,12.7,18.4,N/A,,Partly Cloudy,310,2012-09-18 22:53:00
7:53 PM,54.0,36.0,51,29.95,10.0,NW,8.1,-,N/A,,Mostly Cloudy,310,2012-09-18 23:53:00
8:53 PM,48.9,39.0,69,29.98,10.0,West,6.9,-,0.00,,Mostly Cloudy,280,2012-09-19 00:53:00
9:53 PM,50.0,42.1,74,30.00,10.0,Calm,Calm,-,N/A,,Overcast,0,2012-09-19 01:53:00
10:53 PM,46.9,41.0,80,30.01,10.0,Calm,Calm,-,N/A,,Mostly Cloudy,0,2012-09-19 02:53:00
11:53 PM,46.9,41.0,80,30.03,10.0,Calm,Calm,-,N/A,,Clear,0,2012-09-19 03:53:00